GSAT0220 (GALILEO 24) (43567 NORAD) Tracking and Keplerian Element Data

This shows tracking and keplerian element data for the satellite.

Feedback or suggestion? Click here.




ElementValue
Catalog43567
NameGSAT0220 (GALILEO 24)
Epoch Orbit514
Epoch Day142.40704202
Epoch Year2019
RAAN51.811
Inclination56.5467
Eccentricity0.0003988
Argument of Perigee300.5189
Mean Anonmoly59.4545
Mean Motion1.70475713
Decay Rate-8.6E-07
L11 43567U 18060D 19142.40704202 -.00000086 00000-0 00000-0 0 9991
L22 43567 56.5467 51.8110 0003988 300.5189 59.4545 1.70475713 5147

Live tracking and technical data element details for GSAT0220 (GALILEO 24) (NORAD 43567). GSAT0220 (GALILEO 24) can be tracked NOW for your location showing map with azimuth and elevation plus other details from your city location.

Track the satellite on the map from your city or location and see movement details for azimuth, elevation, latitude, longitude, range, height, and movement on the map or in text.







IsCatalogInMostPopularTable: catalog: 43567, numindb: 141
Update: records affected: 1



GetName: 43567 GSAT0220 (GALILEO 24)

Hit Count: updated at: Fri, 24 May 2019 21:22:47 GMT